Flag for U.S.A. Weather past 2 weeks in Columbus, Georgia, U.S.A.

Now
80 °F

Sunny.


Feels Like: 82 °F
Forecast: 65 / 86 °F
Wind: 6 mph from North

Location: Columbus Metropolitan Airport

Current Time: May 29, 2015 at 1:07:46 PM

Latest Report: May 29, 2015 at 11:51 AM


Visibility: 10 mi

Pressure: 30.18 "Hg

Humidity: 56%

Dew point: 63 °F

Location of ColumbusLocation

Historic Weather in Columbus — Graph

°F

Columbus temperature yesterday

Maximum temperature yesterday: 85 °F (at 2:51 PM)
Minimum temperature yesterday: 67 °F (at 4:51 AM)
Average temperature yesterday: 75 °F

Past Weeks' High & Low Weather Summary

 TemperatureHumidityPressure
High90 °F (May 20, 4:51 PM)97% (May 15, 2:51 AM)30.34 "Hg (May 15, 2:51 AM)
Low56 °F (May 22, 6:51 AM)30% (May 23, 3:51 PM)29.89 "Hg (May 20, 6:51 PM)
Average75 °F70%30.14 "Hg
* Reported May 14 11:51 AM — May 29 11:51 AM, Columbus, Weather by CustomWeather, © 2015

Note: Actual official high and low records may vary slightly from our data, if they occured in-between our weather recording intervals... More about our weather records

Advertising

Columbus weather history for previous 24 hours

 ConditionsComfort  
Time TempWeatherWind HumidityBarometerVisibility
11:51 AM
Fri, May 29
80 °FSunny.6 mph56%30.18 "Hg10 mi
10:51 AM77 °FSunny.5 mph64%30.19 "Hg10 mi
9:51 AM74 °FSunny.3 mph71%30.19 "Hg10 mi
8:51 AM72 °FSunny.5 mph73%30.17 "Hg10 mi
7:51 AM69 °FSunny.6 mph81%30.14 "Hg10 mi
6:51 AM67 °FClear.6 mph90%30.12 "Hg10 mi
5:51 AM67 °FClear.3 mph93%30.11 "Hg10 mi
4:51 AM68 °FClear.No wind93%30.09 "Hg10 mi
3:51 AM68 °FClear.No wind96%30.09 "Hg10 mi
2:51 AM69 °FClear.No wind93%30.09 "Hg10 mi
1:51 AM70 °FClear.5 mph87%30.11 "Hg10 mi
12:51 AM70 °FClear.3 mph87%30.14 "Hg10 mi
11:51 PM
Thu, May 28
70 °FClear.No wind87%30.16 "Hg10 mi
10:51 PM71 °FClear.6 mph84%30.17 "Hg10 mi
9:51 PM72 °FPassing clouds.10 mph84%30.17 "Hg10 mi
8:51 PM73 °FThundershowers. Mostly cloudy.12 mph84%30.15 "Hg10 mi
7:51 PM75 °FMostly cloudy.8 mph79%30.13 "Hg10 mi
6:51 PM81 °FBroken clouds.7 mph54%30.09 "Hg10 mi
5:51 PM82 °FScattered clouds.7 mph56%30.08 "Hg10 mi
4:51 PM83 °FPassing clouds.7 mph55%30.08 "Hg10 mi
3:51 PM84 °FPassing clouds.12 mph59%30.09 "Hg10 mi
2:51 PM85 °FPassing clouds.9 mph53%30.11 "Hg10 mi
1:51 PM84 °FScattered clouds.12 mph57%30.14 "Hg10 mi
Weather by CustomWeather, © 2015

See weather overviewHow to use our weather pages